THOR ABLESTAR DEB, 2701

Orbit data source: Space-Track

THOR ABLESTAR DEB, 2701 is space debris in LEO originally from a launch on Thu, 24 Jun 1965 UTC launched from the Air Force Western Test Range (AFWTR). Debris objects in space refer to the collection of defunct objects orbiting the Earth. Examples of debris include non-operational satellites, rocket bodies, and fragments generated from explosions, collisions, or faulty payload assembly.

Loading next visibility...
Identifier
2701, 1965-048E
Orbit
LEO
Country
Flag of USUS
Related business
Manufacturer
Unknown
Mission
Spacecraft
Bus & Motor
Unknown
Mass
Unknown
Launch date (UTC)
1965-06-24 (61 years ago)
Launch vehicle
Unknown
Launch site
Air Force Western Test Range (AFWTR)
Object type
Payload
Rocket body
Debris
Shape & HBR
Unknown shape, 0.1 m
Radar Cross Section
Medium (>0.1 m² and <1 m²)

Expand to show TLE details & history
Last TLE update: 8 hours ago

TLE from 8 hours ago
0 THOR ABLESTAR DEB
1 02701U 65048E   26208.21526236  .00000284  00000-0  33823-3 0  9994
2 02701  89.8767 286.9091 0065255 126.1793 263.7771 13.63993691 26757
Epoch: 2026-07-27T05:09Z
TLE epoch observation values (Epoch: 2026-07-27T05:09:58.667Z)
Latitude
29.25835°
Longitude
-95.41866°
Altitude
1,030.469 km
Speed
7.336 km/s
True Right ascension
19h 07m 54s
True Declination
29° 07' 02"
Sunlit
Object was in full shadow at epoch
Visualization orbit readout
Latitude
Unknown
Longitude
Unknown
Altitude
Unknown
Speed
Unknown
Apparent Right ascension
Unknown
Apparent Declination
Unknown
Sunlit
N/A
Visualization observer readout
Local Sidereal Time
02:21:42
Azimuth
Unknown
Elevation
Unknown
Doppler factor
Unknown
Orbital elements
Apogee altitude
1,066.508 km
Perigee altitude
969.978 km
Semi-major axis
7,396.38 km
Eccentricity
0.00653
Inclination
89.8767°
RAAN
286.9091°
Arg. of periapsis
126.1793°
True anomaly
263.03442°
Mean anomaly
263.7771°
Eccentric anomaly
263.40569°
Mean motion
3.41204 °/min
Orbital period
105.51 mins
BSTAR
0.00033823
Loading maneuver chart data...
Computing Atmospheric mass density...

Documentation

Showing up to 5 results
|